STARLINK-32390, 61630

Orbit data source: Space-Track

STARLINK-32390, 61630 is a payload satellite owned by SpaceX/Seattle (US) in LEO that was launched on Wed, 23 Oct 2024 UTC via an FALCON 9 launch vehicle from the Air Force Eastern Test Range (AFETR). Payload-class satellites include a variety of spacecraft equipped with specific instruments for various scientific and technological missions. These include communications satellites like Starlink; space stations such as the ISS; scientific satellites like the Hubble; Earth observation satellites from companies like Planet Labs, Umbra, and HawkEye 360; GPS; miniature CubeSats for education and research; and military/defense satellites.

Loading next visibility...
Identifier
61630, 2024-191K
Orbit
LEO
Country
Flag of USUS
Related business
Manufacturer
SpaceX/Seattle
Mission
Operational Commercial Communications
Bus & Motor
STARLINK V2M, Unknown motor
Mass
730 kg wet, ~700 kg dry
Launch date (UTC)
2024-10-23 (1 year ago)
Launch vehicle
FALCON 9
Launch site
Air Force Eastern Test Range (AFETR)
Object type
Payload
Rocket body
Debris
Shape & HBR
Box + 2 Pan, 17.7 m
Radar Cross Section
33.884 m², Large (>1 m²)

Expand to show TLE details & history
Last TLE update: 20 hours ago

TLE from 20 hours ago
0 STARLINK-32390
1 61630U 24191K   26062.41075600 -.00004960  00000-0 -17076-3 0  9997
2 61630  43.0032 190.1806 0001570 270.7314  89.3358 15.27594999 76573
Epoch: 2026-03-03T09:51Z
TLE epoch observation values (Epoch: 2026-03-03T09:51:29.318Z)
Latitude
-0°
Longitude
-118.88177°
Altitude
482.768 km
Speed
7.626 km/s
True Right ascension
12h 40m 43s
True Declination
0° 00' 00"
Sunlit
Object was in full shadow at epoch
Visualization orbit readout
Latitude
Unknown
Longitude
Unknown
Altitude
Unknown
Speed
Unknown
Apparent Right ascension
Unknown
Apparent Declination
Unknown
Sunlit
N/A
Visualization observer readout
Local Sidereal Time
09:33:32
Azimuth
Unknown
Elevation
Unknown
Doppler factor
Unknown
Orbital elements
Apogee altitude
486.026 km
Perigee altitude
483.871 km
Semi-major axis
6,863.086 km
Eccentricity
0.00016
Inclination
43.0032°
RAAN
190.1806°
Arg. of periapsis
270.7314°
True anomaly
89.35379°
Mean anomaly
89.3358°
Eccentric anomaly
89.34479°
Mean motion
3.81737 °/min
Orbital period
94.31 mins
BSTAR
-0.00017076
Loading maneuver chart data...
Computing Atmospheric mass density...
Loading historical data...
Loading historical data...
Loading historical data...
Loading historical data...
Loading historical data...
Loading historical data...
Loading historical data...

Documentation

Showing up to 5 results
|